SCP
3 3 3 3 2 3 3 3 2 2 2 1 1 1 1 1 1 1 1 1 1 1 1 1 1 1 1 1 1 1 1 1 1 1 1 1 2 2 2 2 2 2 1
3 3 3 3 2 3 3 3 3 2 2 2 1 1 1 1 1 1 1 1 1 1 1 1 1 1 1 1 1 1 1 1 1 1 2 2 2 2 2 2 2 2 2
4 4 3 3 2 2 3 4 4 3 3 3 2 2 1 1 1 1 1 1 1 1 1 1 1 1 1 1 1 1 1 1 1 1 2 2 2 2 2 2 2 2 2
5 4 4 3 3 2 2 3 4 4 4 3 3 2 2 2 1 1 1 1 1 1 1 1 1 1 1 1 1 1 1 1 1 1 1 1 2 2 2 1 1 1 1
4 4 5 5 4 3 2 2 3 4 4 4 3 3 2 2 1 1 1 1 1 1 1 1 1 1 1 1 1 1 1 1 1 1 1 1 1 1 1 1 1 1 1
5 5 6 6 5 4 2 2 3 3 4 4 4 4 3 2 1 1 1 1 1 1 1 1 1 1 1 1 1 1 1 1 1 2 1 1 1 1 1 1 1 1 1
6 7 7 7 6 4 3 3 3 3 3 3 4 4 3 2 2 1 1 1 1 1 1 1 1 1 1 1 1 1 1 1 1 2 2 1 1 1 1 1 1 1 1
8 8 7 7 6 4 3 3 3 2 2 2 3 3 3 2 2 1 1 1 1 1 1 1 1 1 1 1 1 1 1 1 1 2 2 1 1 1 1 1 2 1 1
8 7 7 7 6 4 3 3 3 2 2 2 2 2 2 1 1 1 2 2 1 1 1 1 1 1 1 1 1 1 1 1 1 1 1 1 1 1 1 1 2 2 2
6 6 5 6 5 4 3 3 2 2 2 2 2 2 2 2 1 1 1 2 1 1 1 1 1 1 1 1 1 1 1 1 1 1 1 1 1 1 1 1 2 2 2
5 4 4 4 4 3 3 3 3 2 2 2 2 2 2 2 1 1 1 1 1 1 1 1 1 1 1 1 1 1 1 1 1 1 1 1 1 1 1 2 2 2 2
3 3 3 3 3 3 3 3 3 3 2 2 2 2 2 2 1 1 1 1 1 1 1 1 1 1 1 1 1 1 1 0 0 0 0 1 1 1 1 2 2 2 2
3 3 3 3 4 3 3 3 3 3 2 2 2 2 2 2 1 1 1 1 1 1 1 1 1 1 1 1 1 1 1 0 0 0 0 0 1 1 1 1 2 2 2
3 3 3 3 3 3 3 3 3 3 3 3 2 2 2 2 2 2 2 1 1 1 1 1 1 1 1 1 1 1 0 0 0 0 0 0 0 1 1 1 1 1 1
3 3 3 3 3 3 3 3 3 3 3 3 3 3 3 3 3 3 2 2 1 1 1 1 2 2 1 1 1 1 1 0 0 0 0 0 0 0 1 1 1 1 1
2 2 3 3 4 3 3 3 3 3 4 4 4 3 3 3 3 3 3 2 2 1 1 1 2 2 2 1 1 1 1 1 0 0 0 0 0 0 0 1 1 1 1
2 2 2 3 3 3 3 3 3 3 3 4 4 3 3 2 3 3 3 3 2 2 1 1 1 2 2 2 2 2 1 1 1 0 0 0 0 0 0 0 0 0 0
2 2 2 2 3 3 3 3 3 3 3 3 2 2 2 2 2 3 3 3 2 2 2 2 2 2 3 3 2 2 2 2 1 1 0 0 0 0 0 0 0 0 0
1 1 1 1 2 2 3 3 2 2 2 2 1 1 1 1 2 2 2 2 2 2 2 2 2 3 3 3 3 2 2 2 2 1 1 0 0 0 0 0 0 0 0
1 1 1 1 1 2 2 3 3 3 3 2 1 1 1 1 1 1 1 1 2 2 2 2 2 3 3 3 2 2 3 3 3 2 2 1 1 1 0 0 0 0 0
1 1 1 0 1 1 2 2 3 4 3 2 1 1 1 1 1 1 1 1 2 2 2 2 2 2 2 2 2 2 3 4 4 4 4 3 2 2 1 1 0 0 0
1 1 1 0 0 0 1 2 3 4 4 3 2 1 1 1 1 0 0 1 1 1 1 2 2 2 2 2 2 2 2 2 4 5 4 3 2 2 2 1 0 0 0
1 1 1 1 0 0 0 1 2 3 4 3 2 1 1 1 1 1 1 1 1 1 1 2 2 2 2 2 2 2 2 1 2 2 2 1 1 2 2 1 1 0 0
1 1 1 1 1 0 0 0 1 2 3 3 2 1 1 1 2 2 2 2 2 1 1 1 2 2 1 1 1 1 1 1 0 0 1 1 1 1 1 1 1 0 0
1 1 1 1 1 1 0 0 0 1 2 2 1 1 1 2 2 2 2 2 2 2 1 1 1 1 1 1 1 1 1 0 0 1 1 1 1 1 1 1 1 1 0
1 1 1 1 1 1 1 0 0 0 1 1 1 1 1 2 2 2 2 3 2 2 1 1 0 0 0 0 0 0 0 0 0 1 1 1 1 1 1 1 1 1 1
Wind_Speed
3 3 2 2 3 2 3 3 3 2 4 4 4 3 3 3 3 3 1 5 3 4 5 5 6 6 7 7 7 7 7 8 8 8 7 8 9 9 9 9 9 9 9
3 3 3 3 3 2 2 3 3 3 4 3 3 3 4 3 3 4 3 4 6 5 4 5 6 6 7 7 7 8 8 8 8 9 9 9 9 10 9 9 9 10 10
3 3 3 3 2 2 3 3 3 3 3 4 4 4 4 4 3 4 4 3 4 7 6 5 5 6 7 7 7 8 8 8 8 9 10 10 9 10 10 10 10 9 9
3 3 2 2 2 3 3 3 3 3 3 4 3 3 3 3 5 5 4 4 4 3 5 6 5 6 6 7 8 8 9 9 9 9 9 9 9 9 10 11 11 10 10
4 3 2 1 3 2 2 3 1 3 3 3 3 3 4 4 4 4 4 4 4 4 4 5 6 6 6 7 7 9 9 9 9 9 9 9 9 9 9 10 10 11 11
4 3 3 2 3 2 2 1 2 2 3 3 4 2 3 3 4 4 5 4 4 5 5 4 5 6 7 7 7 8 9 9 9 9 9 9 8 9 9 10 10 11 11
4 3 2 2 3 2 2 2 3 3 3 2 3 3 4 5 4 4 4 4 4 4 5 5 5 4 3 8 8 8 8 8 9 9 9 9 9 10 10 10 11 11 11
3 3 3 2 2 2 2 2 3 3 2 2 3 3 3 4 4 4 4 4 4 4 5 5 4 4 6 4 3 7 7 8 9 9 10 10 10 10 10 11 11 11 11
3 2 3 2 2 2 2 2 3 4 3 2 3 3 3 3 2 3 4 3 3 4 5 4 5 5 6 6 5 5 6 6 8 10 10 10 10 11 12 12 12 13 13
3 2 2 1 1 2 1 3 1 3 4 3 2 3 4 4 4 3 3 3 3 4 4 5 5 5 5 6 4 4 4 5 8 9 10 10 10 11 12 13 13 13 14
3 3 2 2 2 2 1 2 2 3 3 3 3 3 3 3 5 5 5 4 4 3 3 4 4 5 5 6 5 4 2 5 8 9 10 11 11 12 13 13 14 14 14
3 3 3 2 2 2 2 2 3 3 3 3 4 4 4 4 4 4 5 6 5 4 4 4 5 5 5 6 6 1 3 6 7 9 10 11 11 12 13 14 15 15 15
2 2 2 2 2 2 2 3 3 3 4 4 4 4 4 4 4 5 6 6 6 6 5 5 4 5 5 5 4 1 5 7 7 8 9 10 11 12 13 13 14 14 14
0 1 2 2 3 3 3 3 4 4 3 4 5 4 5 4 4 4 5 6 6 6 6 6 4 5 5 5 3 4 6 6 7 8 9 10 11 11 12 12 12 13 13
1 2 2 2 3 3 3 3 3 4 4 5 5 5 5 4 5 4 5 5 6 8 7 6 5 5 4 5 4 6 8 5 7 9 9 10 10 11 12 12 11 11 12
1 2 2 3 3 3 3 3 3 3 4 4 4 4 5 5 4 5 5 6 6 7 8 7 6 6 5 6 6 8 8 7 10 11 11 10 11 11 12 12 12 11 11
1 2 2 2 2 2 2 3 4 3 4 4 4 5 5 6 5 5 5 6 6 6 8 8 7 6 6 8 7 8 8 9 7 9 10 10 11 11 12 12 12 12 12
2 2 2 2 2 2 2 4 4 4 4 4 4 5 6 5 6 6 5 6 6 6 8 9 7 7 7 7 8 9 8 8 8 6 8 10 11 11 12 12 12 12 11
1 1 1 1 2 2 2 3 3 3 3 4 4 4 5 5 6 5 6 6 6 6 6 7 8 6 6 6 7 8 9 7 9 6 8 10 10 11 11 11 11 11 11
1 0 1 1 2 2 2 2 3 3 3 3 4 4 5 5 6 6 6 6 6 7 7 7 7 7 6 6 6 7 7 6 7 8 6 6 7 10 11 11 11 11 11
1 0 1 1 1 2 1 2 3 3 3 4 4 4 4 4 4 5 6 6 7 7 7 6 7 7 6 6 7 7 7 7 7 7 7 6 5 6 6 9 11 11 10
0 0 1 1 1 1 3 2 4 4 4 4 4 5 5 3 3 5 6 7 8 8 7 7 7 7 8 8 7 7 8 8 7 5 7 7 6 6 6 5 3 5 8
0 0 1 1 1 1 2 1 3 5 5 4 5 5 5 4 4 5 5 6 7 7 8 8 9 8 8 7 8 9 8 8 8 7 7 8 6 7 6 3 3 5 7
0 0 1 1 1 1 1 1 3 5 4 4 4 4 4 5 4 6 7 6 6 5 5 6 6 7 7 7 8 9 9 9 9 6 6 8 7 7 6 5 3 5 7
1 1 1 1 2 1 1 1 5 4 3 4 4 3 3 4 3 6 7 6 6 5 4 4 6 7 7 8 8 8 7 7 7 6 4 6 7 7 7 6 3 5 6
1 2 1 1 2 2 1 1 4 4 3 3 3 2 2 3 3 5 6 6 6 6 6 5 5 5 6 5 6 7 7 7 7 6 4 5 7 7 7 5 4 3 4
Wind_Direction
205 205 204 217 234 231 221 238 239 237 240 228 228 230 245 252 260 261 158 146 199 229 239 242 244 245 243 241 241 244 244 241 237 235 232 227 227 227 226 226 224 224 223
202 218 211 220 230 233 246 248 236 235 246 245 237 234 244 242 242 261 261 179 186 209 238 249 253 254 252 250 247 246 247 245 242 236 233 232 228 225 225 227 226 225 222
196 215 213 214 225 227 227 240 237 236 236 235 232 230 235 244 247 251 261 261 216 195 209 236 253 258 257 255 256 252 250 246 243 241 238 235 230 226 225 226 228 227 225
195 212 215 208 221 230 232 232 238 238 237 245 240 237 232 223 233 240 247 247 260 252 199 199 239 257 260 260 260 257 253 248 244 244 241 236 234 230 228 226 226 226 225
193 212 211 201 219 220 235 250 221 251 241 246 244 233 240 236 232 233 242 251 256 265 268 182 205 235 250 258 262 264 258 251 248 245 243 240 238 235 233 230 227 227 225
192 215 195 190 225 203 219 239 242 238 253 254 261 253 251 244 241 241 246 246 254 262 266 272 241 215 217 241 255 261 257 253 249 245 244 244 243 240 237 235 232 230 229
186 204 212 183 226 201 224 228 233 219 228 244 252 244 236 234 239 249 255 267 261 264 269 268 267 276 228 209 226 245 252 251 251 249 248 249 247 245 240 237 235 235 233
184 190 191 207 203 202 211 231 234 244 229 233 266 259 247 222 217 237 247 248 267 269 262 257 263 267 280 269 198 218 245 252 257 256 251 248 247 246 242 240 237 237 236
173 187 190 212 216 222 208 227 235 243 247 237 265 279 279 281 288 216 240 254 262 272 272 273 266 270 271 273 269 217 228 253 260 262 257 251 248 246 243 241 239 240 240
181 177 178 186 233 243 221 235 225 251 252 246 232 260 284 314 289 274 242 245 260 267 277 284 282 274 270 269 267 277 248 256 265 267 264 259 253 248 244 242 240 239 240
177 181 181 191 215 240 245 254 250 258 253 263 261 255 256 248 259 278 289 291 277 274 278 276 284 283 281 274 271 270 250 259 264 266 267 264 259 253 248 244 243 240 240
176 176 184 195 218 232 237 242 250 243 258 264 275 273 267 265 269 276 279 280 286 286 283 280 277 276 278 275 271 319 273 263 262 263 265 264 259 255 252 248 245 243 241
174 166 190 206 227 233 245 250 244 254 250 253 261 272 278 279 284 281 279 283 287 284 274 263 265 270 275 277 277 257 258 254 259 261 262 262 259 256 254 252 248 247 245
162 169 200 214 230 237 244 241 246 247 248 252 258 271 276 277 282 279 279 286 285 284 278 281 283 278 287 286 304 268 273 240 247 256 259 260 261 259 256 253 249 247 246
190 192 216 226 234 240 246 244 248 252 254 256 259 256 266 274 269 275 273 272 280 287 291 292 289 292 292 291 291 283 282 259 248 252 255 258 260 259 256 250 247 245 243
223 221 234 234 239 239 240 247 249 242 257 262 264 271 273 276 283 271 266 268 269 276 285 292 294 296 304 293 284 284 281 264 245 243 248 253 255 256 254 250 247 244 243
200 223 243 241 241 239 245 253 263 257 258 266 265 264 266 272 279 280 276 272 270 271 277 285 292 294 290 287 289 287 279 273 261 227 232 244 251 254 253 250 247 245 243
205 220 234 242 241 237 245 257 265 266 265 269 272 275 276 276 278 279 285 282 280 274 271 282 289 286 282 281 282 284 284 281 282 247 228 238 245 248 249 247 245 243 241
205 228 237 253 256 258 258 269 271 268 273 282 285 286 287 289 287 292 288 289 289 286 280 280 284 289 287 288 288 283 285 285 282 267 237 234 238 241 244 243 241 239 237
178 223 256 278 281 280 286 289 285 282 285 290 288 284 285 290 290 295 292 292 293 293 285 280 282 287 289 298 296 293 291 286 290 292 284 271 245 233 235 235 236 235 233
150 144 274 277 291 287 318 323 300 291 286 284 287 288 290 293 297 293 297 304 297 290 289 290 290 295 300 308 303 300 297 295 289 291 295 285 268 260 247 231 227 228 229
121 298 295 311 310 351 53 357 303 292 287 288 295 300 295 279 287 270 268 274 278 281 292 295 294 298 301 304 308 302 300 299 298 304 299 292 287 281 273 266 223 214 226
145 301 304 291 320 42 61 334 299 285 282 291 296 298 304 321 293 302 289 265 263 253 256 279 289 296 301 310 308 301 300 302 302 306 297 292 294 290 286 284 187 210 225
347 313 286 298 303 63 111 281 292 267 280 288 290 289 295 305 333 317 301 300 296 294 278 271 287 292 300 304 297 293 293 286 280 279 290 293 296 296 300 296 216 211 222
316 296 283 296 300 332 106 282 291 285 296 300 302 307 300 309 359 320 296 301 306 306 281 263 271 275 281 278 281 286 289 289 294 300 303 298 300 303 298 289 265 217 222
293 293 323 308 310 327 52 289 286 289 308 304 305 296 67 352 340 314 302 305 308 311 308 298 276 261 263 259 249 268 289 294 300 304 321 307 301 302 295 290 293 281 256